User: anonymous   Login
Location: Unspecified
(0.0000°N, 0.0000°E)
Time: 12:59:05
(UTC+00:00)
Language:

P83-1 Hilat - Orbit

View from above orbital plane
View from above orbital plane
View from above satellite
View from above satellite

Ground track
Ground track

The orbit data is extracted from the following two-line orbital elements,

1 14154U 83063A   21015.75227038  .00000081  00000-0  21904-4 0  9997
2 14154  82.0240 196.3868 0040921 153.3787 217.7358 14.36488553963372
Epoch (UTC): 15 January 2021 18:03:16
Eccentricity: 0.0040921
inclination: 82.0240°
perigee height: 741 km
apogee height: 799 km
right ascension of ascending node: 196.3868°
argument of perigee: 153.3787°
revolutions per day: 14.36488553
mean anomaly at epoch: 217.7358°
orbit number at epoch: 96337

The dashed part of the orbit path shows where the satellite is in the earth's shadow,  

DLR